Location: *
(43.4667°N, 11.6833°E)
Time: 09:34:47
(UTC+00:00)

NOSS 3-1 (C) - Pass Details

Date: 19 July 2019
Orbit: 775 x 1433 km, 63.4° (Epoch: 11 August)

Event Time Altitude Azimuth Distance (km) Brightness Sun altitude
Rises 20:07:59 0° 189° (S) 3,271 5.9 -12.2°
Reaches altitude 10° 20:10:26 10° 181° (S) 2,384 5.1 -12.5°
Maximum altitude 20:15:24 37° 115° (ESE) 1,311 3.7 -13.1°
Drops below altitude 10° 20:20:59 10° 49° (NE) 2,685 5.8 -13.8°
Sets 20:23:54 0° 42° (NE) 3,740 6.6 -14.2°
